Poplar Bluff, MO

8:16 AM CDT on July 17, 2019 (GMT -0500)
Poplar Bluff Municipal

Weather History for KPOF - May, 2019

Change the Weather History Date:

Thursday, May 9, 2019

  Actual Average Record
Temperature  
Mean Temperature 67 °F -  
Max Temperature 73 °F 78 °F 91 °F (1986)
Min Temperature 60 °F 53 °F 38 °F (1924)
Cooling Degree Days 2    
Growing Degree Days 17 (Base 50)    
Moisture  
Dew Point 65 °F    
Average Humidity 94    
Maximum Humidity 100    
Minimum Humidity 81    
Precipitation  
Precipitation 0.35 in - - ()
Sea Level Pressure  
Sea Level Pressure 29.84 in    
Wind  
Wind Speed 9 mph (SW)    
Max Wind Speed 14 mph    
Max Gust Speed 21 mph    
Visibility 7 miles    
Events Rain    
Averages and records for this station are not official NWS values.
T = Trace of Precipitation, MM = Missing Value Source: NWS Daily Summary

Daily Weather History Graph

Daily Weather History Graph

Search for Another Location

Airport or City:

Astronomy

May. 09, 2019 Rise Set
Actual Time 5:59 AM CDT 7:56 PM CDT
Civil Twilight 5:30 AM CDT 8:25 PM CDT
Nautical Twilight 4:56 AM CDT 8:59 PM CDT
Astronomical Twilight 4:19 AM CDT 9:36 PM CDT
Moon 9:56 AM CDT (5/9) No Moon Set
Length of Visible Light 14h 54m
Length of Day
13h 57m
Waxing Crescent, 25% of the Moon is Illuminated
May 9
Waxing Crescent
May 11
First Quarter
May 18
Full
May 26
Last Quarter
Jun 3
New

Hourly Weather History & Observations

Time (CDT) Temp. Dew Point Humidity Pressure Visibility Wind Dir Wind Speed Gust Speed Precip Events Conditions
12:12 AM 70.0 °F 68.0 °F 93% 29.75 in 10.0 mi South 13.8 mph - N/A   Overcast
12:53 AM 69.1 °F 68.0 °F 96% 29.74 in 10.0 mi South 9.2 mph - N/A   Overcast
1:46 AM 69.1 °F 68.0 °F 96% 29.75 in 10.0 mi SSW 9.2 mph - N/A   Mostly Cloudy
1:53 AM 68.0 °F 68.0 °F 100% 29.74 in 10.0 mi SW 10.4 mph - N/A   Mostly Cloudy
2:06 AM 68.0 °F 66.9 °F 96% 29.76 in 10.0 mi SSW 11.5 mph - N/A   Mostly Cloudy
2:20 AM 68.0 °F 66.9 °F 96% 29.77 in 10.0 mi SSW 11.5 mph - N/A   Partly Cloudy
2:53 AM 66.9 °F 66.0 °F 97% 29.74 in 10.0 mi SW 10.4 mph - N/A   Clear
3:28 AM 66.9 °F 66.0 °F 97% 29.75 in 10.0 mi SW 6.9 mph - N/A   Partly Cloudy
3:53 AM 66.0 °F 66.0 °F 100% 29.74 in 10.0 mi SSW 6.9 mph - N/A   Scattered Clouds
4:16 AM 66.0 °F 66.0 °F 100% 29.77 in 10.0 mi SSW 8.1 mph - N/A   Overcast
4:35 AM 66.0 °F 64.9 °F 96% 29.78 in 10.0 mi SSW 9.2 mph - N/A   Overcast
4:53 AM 66.0 °F 64.9 °F 96% 29.78 in 10.0 mi SSW 12.7 mph - N/A   Overcast
5:26 AM 66.0 °F 64.0 °F 93% 29.79 in 10.0 mi SSW 13.8 mph - N/A   Mostly Cloudy
5:53 AM 66.0 °F 64.0 °F 93% 29.81 in 10.0 mi SW 12.7 mph 20.7 mph N/A   Overcast
6:53 AM 66.0 °F 64.0 °F 93% 29.83 in 10.0 mi WSW 6.9 mph - N/A   Overcast
7:15 AM 64.9 °F 64.0 °F 97% 29.83 in 3.0 mi SW 3.5 mph - N/A   Overcast
7:22 AM 64.9 °F 64.0 °F 97% 29.82 in 2.5 mi Variable 3.5 mph - N/A   Overcast
7:48 AM 64.4 °F 64.4 °F 100% 29.83 in 5.0 mi SW 6.9 mph - N/A   Overcast
7:53 AM 64.9 °F 64.0 °F 97% 29.82 in 8.0 mi SW 4.6 mph - N/A   Overcast
8:32 AM 64.9 °F 64.0 °F 97% 29.85 in 2.5 mi SSW 5.8 mph - N/A   Overcast
8:40 AM 64.9 °F 64.0 °F 97% 29.85 in 1.5 mi SSW 5.8 mph - 0.00 in Rain Light Rain
8:53 AM 64.0 °F 64.0 °F 100% 29.84 in 1.2 mi South 4.6 mph - 0.01 in Rain Light Rain
9:43 AM 64.9 °F 64.9 °F 100% 29.85 in 3.0 mi South 9.2 mph - 0.01 in   Overcast
9:50 AM 64.4 °F 64.4 °F 100% 29.86 in 4.0 mi South 9.2 mph - 0.01 in   Overcast
9:53 AM 64.9 °F 64.9 °F 100% 29.85 in 4.0 mi South 9.2 mph - 0.01 in   Overcast
10:02 AM 64.9 °F 64.9 °F 100% 29.86 in 1.8 mi South 12.7 mph 18.4 mph 0.00 in Rain Light Rain
10:18 AM 64.9 °F 64.9 °F 100% 29.86 in 3.0 mi South 11.5 mph - 0.01 in Rain Light Rain
10:31 AM 64.9 °F 64.0 °F 97% 29.86 in 8.0 mi South 10.4 mph - 0.01 in   Overcast
10:42 AM 66.0 °F 64.9 °F 96% 29.85 in 10.0 mi South 8.1 mph - 0.01 in   Overcast
10:53 AM 66.9 °F 64.9 °F 93% 29.84 in 10.0 mi South 6.9 mph - 0.01 in   Mostly Cloudy
11:13 AM 68.0 °F 64.9 °F 90% 29.85 in 10.0 mi SSW 9.2 mph - N/A   Overcast
11:53 AM 66.9 °F 64.9 °F 93% 29.86 in 10.0 mi SSW 11.5 mph - N/A   Overcast
12:34 PM 66.9 °F 66.0 °F 97% 29.87 in 1.8 mi SW 8.1 mph - 0.00 in Rain Light Rain
12:45 PM 66.9 °F 66.0 °F 97% 29.86 in 2.0 mi SW 6.9 mph - 0.02 in Rain Light Rain
12:50 PM 66.2 °F 66.2 °F 100% 29.86 in 3.0 mi SW 8.1 mph - 0.02 in Rain Light Rain
12:53 PM 66.9 °F 66.9 °F 100% 29.86 in 5.0 mi SW 8.1 mph - 0.02 in   Overcast
1:00 PM 66.9 °F 66.9 °F 100% 29.86 in 2.5 mi WSW 8.1 mph - 0.00 in Rain Light Rain
1:08 PM 66.9 °F 66.0 °F 97% 29.86 in 1.2 mi WSW 9.2 mph - 0.03 in Rain Light Rain
1:16 PM 66.9 °F 66.9 °F 100% 29.86 in 2.5 mi SW 5.8 mph - 0.03 in Rain Light Rain
1:23 PM 66.9 °F 66.9 °F 100% 29.86 in 5.0 mi Variable 4.6 mph - 0.03 in   Overcast
1:42 PM 68.0 °F 66.0 °F 93% 29.86 in 3.0 mi SW 5.8 mph - 0.04 in Rain Light Rain
1:53 PM 68.0 °F 66.0 °F 93% 29.86 in 7.0 mi SSW 5.8 mph - 0.04 in   Overcast
2:53 PM 71.1 °F 66.9 °F 87% 29.84 in 10.0 mi South 8.1 mph - N/A   Partly Cloudy
3:53 PM 72.0 °F 66.9 °F 84% 29.84 in 10.0 mi South 10.4 mph - N/A   Overcast
4:07 PM 72.0 °F 66.9 °F 84% 29.84 in 10.0 mi South 9.2 mph - N/A   Overcast
4:24 PM 73.0 °F 66.9 °F 81% 29.84 in 10.0 mi SSW 10.4 mph - N/A   Mostly Cloudy
4:53 PM 73.0 °F 66.9 °F 81% 29.83 in 10.0 mi South 9.2 mph - N/A   Scattered Clouds
5:53 PM 73.0 °F 66.9 °F 81% 29.83 in 10.0 mi South 10.4 mph - N/A   Scattered Clouds
6:42 PM 72.0 °F 66.9 °F 84% 29.85 in 10.0 mi South 8.1 mph - N/A   Mostly Cloudy
6:53 PM 72.0 °F 66.9 °F 84% 29.85 in 10.0 mi SSW 6.9 mph - 0.00 in Rain Light Rain
7:03 PM 72.0 °F 66.9 °F 84% 29.85 in 8.0 mi SSW 5.8 mph - 0.00 in Rain Light Rain
7:41 PM 70.0 °F 69.1 °F 97% 29.89 in 1.8 mi NW 5.8 mph - 0.04 in Rain Rain
7:53 PM 68.0 °F 66.9 °F 96% 29.89 in 0.8 mi North 8.1 mph - 0.25 in Rain Heavy Rain
7:59 PM 68.0 °F 66.0 °F 93% 29.91 in 2.5 mi NW 9.2 mph - 0.01 in Rain Light Rain
8:06 PM 66.9 °F 64.0 °F 90% 29.91 in 8.0 mi NW 5.8 mph - 0.01 in Rain Light Rain
8:53 PM 64.9 °F 62.1 °F 90% 29.93 in 10.0 mi North 12.7 mph - 0.01 in   Overcast
9:28 PM 63.0 °F 60.1 °F 90% 29.98 in 10.0 mi NNW 10.4 mph - N/A   Overcast
9:53 PM 63.0 °F 59.0 °F 87% 29.97 in 10.0 mi NNW 10.4 mph - N/A   Overcast
10:53 PM 61.0 °F 57.0 °F 87% 29.99 in 10.0 mi North 8.1 mph - N/A   Overcast
11:53 PM 60.1 °F 55.9 °F 86% 30.01 in 10.0 mi North 6.9 mph - N/A   Overcast